,,Stat6,,Stat2,,Stat8,,Stat9,,Stat10,,Wind1,,Wind1,
time,status,PA1M_AVG,status,PR1M_SUM,status,RH1M_AVG,status,SR1M_AVG,status,TA1M_AVG,status,W1dAve1m,status,W1sAve1m,
2003-09-27, 00:00:01,VALID,918.193,VALID,0,VALID,96.7895,VALID,-0.0849042,VALID,19.6647,VALID,118,VALID,0.383903,
2003-09-27, 00:01:00,VALID,918.175,VALID,0,VALID,96.6725,VALID,0,VALID,19.6384,VALID,118,VALID,0.248476,
2003-09-27, 00:02:00,VALID,918.149,VALID,0,VALID,96.6699,VALID,-0.0339617,VALID,19.6227,VALID,118,VALID,0.12965,
2003-09-27, 00:03:00,VALID,918.132,VALID,0,VALID,96.6941,VALID,-0.101885,VALID,19.5877,VALID,118,VALID,0.0390625,
2003-09-27, 00:04:00,VALID,918.126,VALID,0,VALID,96.7767,VALID,-0.0849042,VALID,19.5713,VALID,118,VALID,0,
2003-09-27, 00:05:00,VALID,918.12,VALID,0,VALID,96.9777,VALID,-0.0339617,VALID,19.5773,VALID,118,VALID,0,
2003-09-27, 00:06:00,VALID,918.1,VALID,0,VALID,97.1569,VALID,-0.0679233,VALID,19.5743,VALID,118,VALID,0,
2003-09-27, 00:07:00,VALID,918.117,VALID,0,VALID,97.143,VALID,-0.0339617,VALID,19.5745,VALID,118,VALID,0,
2003-09-27, 00:08:00,VALID,918.102,VALID,0,VALID,97.0527,VALID,-0.0509425,VALID,19.5748,VALID,118,VALID,0,
2003-09-27, 00:09:00,VALID,918.114,VALID,0,VALID,96.8416,VALID,-0.0849042,VALID,19.5648,VALID,118,VALID,0,
2003-09-27, 00:10:00,VALID,918.109,VALID,0,VALID,96.6483,VALID,-0.101885,VALID,19.539,VALID,118,VALID,0.396341,
2003-09-27, 00:11:00,VALID,918.122,VALID,0,VALID,96.6521,VALID,-0.0679233,VALID,19.4968,VALID,118,VALID,0.684832,
2003-09-27, 00:12:00,VALID,918.118,VALID,0,VALID,96.7182,VALID,-0.0339617,VALID,19.4647,VALID,118,VALID,0.736914,
2003-09-27, 00:13:00,VALID,918.094,VALID,0,VALID,97.045,VALID,-0.0679233,VALID,19.4551,VALID,122,VALID,0.737464,
2003-09-27, 00:14:00,VALID,918.069,VALID,0,VALID,97.2981,VALID,-0.0509425,VALID,19.4618,VALID,139,VALID,0.645774,
2003-09-27, 00:15:00,VALID,918.042,VALID,0,VALID,97.5143,VALID,-0.0849042,VALID,19.4814,VALID,143,VALID,0.601944,
2003-09-27, 00:16:00,VALID,918.011,VALID,0,VALID,97.5715,VALID,-0.0679233,VALID,19.4841,VALID,145,VALID,0.32832,
2003-09-27, 00:17:00,VALID,917.983,VALID,0,VALID,97.588,VALID,-0.118866,VALID,19.4846,VALID,143,VALID,0.644985,
2003-09-27, 00:18:00,VALID,917.945,VALID,0,VALID,97.588,VALID,0.0169808,VALID,19.4864,VALID,141,VALID,0.658203,
2003-09-27, 00:19:00,VALID,917.917,VALID,0,VALID,97.7165,VALID,0.0169808,VALID,19.4901,VALID,144,VALID,0.652253,
2003-09-27, 00:20:00,VALID,917.898,VALID,0,VALID,97.9288,VALID,0,VALID,19.5023,VALID,143,VALID,0.688834,
2003-09-27, 00:21:00,VALID,917.89,VALID,0,VALID,97.986,VALID,0,VALID,19.5189,VALID,141,VALID,0.934642,
2003-09-27, 00:22:00,VALID,917.873,VALID,0,VALID,98.0318,VALID,0,VALID,19.506,VALID,136,VALID,0.936111,
2003-09-27, 00:23:00,VALID,917.858,VALID,0,VALID,98.1183,VALID,0,VALID,19.5,VALID,140,VALID,1.09691,
2003-09-27, 00:24:00,VALID,917.851,VALID,0,VALID,98.2696,VALID,0,VALID,19.4802,VALID,147,VALID,1.33711,
2003-09-27, 00:25:00,VALID,917.854,VALID,0,VALID,98.5214,VALID,0.0169808,VALID,19.4603,VALID,138,VALID,1.11073,
2003-09-27, 00:26:00,VALID,917.844,VALID,0,VALID,98.7261,VALID,0,VALID,19.4546,VALID,127,VALID,1.16033,
2003-09-27, 00:27:00,VALID,917.835,VALID,0,VALID,98.9346,VALID,0.0169808,VALID,19.4479,VALID,137,VALID,1.20203,
2003-09-27, 00:28:00,VALID,917.811,VALID,0,VALID,99.1139,VALID,0,VALID,19.4379,VALID,137,VALID,1.42092,
2003-09-27, 00:29:00,VALID,917.779,VALID,0,VALID,99.2818,VALID,0.0169808,VALID,19.4409,VALID,136,VALID,1.55202,
2003-09-27, 00:30:00,VALID,917.742,VALID,0,VALID,99.3784,VALID,0,VALID,19.4312,VALID,134,VALID,1.3022,
2003-09-27, 00:31:00,VALID,917.723,VALID,0,VALID,99.4408,VALID,0.0339617,VALID,19.4352,VALID,141,VALID,1.32292,
2003-09-27, 00:32:00,VALID,917.707,VALID,0,VALID,99.5069,VALID,0.0169808,VALID,19.4215,VALID,137,VALID,0.943496,
2003-09-27, 00:33:00,VALID,917.69,VALID,0,VALID,99.5692,VALID,0,VALID,19.4253,VALID,137,VALID,0.887718,
2003-09-27, 00:34:00,VALID,917.677,VALID,0,VALID,99.6251,VALID,0.0509425,VALID,19.4312,VALID,146,VALID,0.854688,
2003-09-27, 00:35:00,VALID,917.678,VALID,0,VALID,99.6404,VALID,0,VALID,19.428,VALID,144,VALID,1.10995,
2003-09-27, 00:36:00,VALID,917.662,VALID,0,VALID,99.6684,VALID,0,VALID,19.4349,VALID,133,VALID,1.05538,
2003-09-27, 00:37:00,VALID,917.639,VALID,0,VALID,99.6747,VALID,0,VALID,19.4449,VALID,134,VALID,1.16257,
2003-09-27, 00:38:00,VALID,917.62,VALID,0,VALID,99.7052,VALID,0,VALID,19.4608,VALID,133,VALID,1.17018,
2003-09-27, 00:39:00,VALID,917.6,VALID,0,VALID,99.6925,VALID,0.0339617,VALID,19.4802,VALID,134,VALID,0.97093,
2003-09-27, 00:40:00,VALID,917.586,VALID,0,VALID,99.6328,VALID,0,VALID,19.4893,VALID,141,VALID,1.09996,
2003-09-27, 00:41:00,VALID,917.559,VALID,0,VALID,99.6086,VALID,0,VALID,19.4993,VALID,134,VALID,0.818892,
2003-09-27, 00:42:00,VALID,917.525,VALID,0,VALID,99.587,VALID,-0.0169808,VALID,19.5062,VALID,137,VALID,1.03325,
2003-09-27, 00:43:00,VALID,917.497,VALID,0,VALID,99.5539,VALID,0,VALID,19.5157,VALID,138,VALID,0.94112,
2003-09-27, 00:44:00,VALID,917.46,VALID,0,VALID,99.5107,VALID,0.0169808,VALID,19.5259,VALID,127,VALID,1.15665,
2003-09-27, 00:45:00,VALID,917.443,VALID,0,VALID,99.5056,VALID,-0.0169808,VALID,19.5286,VALID,130,VALID,0.859947,
2003-09-27, 00:46:00,VALID,917.432,VALID,0,VALID,99.4675,VALID,0.0169808,VALID,19.5388,VALID,129,VALID,0.726563,
2003-09-27, 00:47:00,VALID,917.412,VALID,0,VALID,99.4013,VALID,0,VALID,19.5254,VALID,111,VALID,0.979307,
2003-09-27, 00:48:00,VALID,917.4,VALID,0,VALID,99.292,VALID,0.0169808,VALID,19.5196,VALID,96,VALID,0.759411,
2003-09-27, 00:49:01,VALID,917.401,VALID,0,VALID,99.2716,VALID,0,VALID,19.4968,VALID,79,VALID,0.67702,
2003-09-27, 00:50:00,VALID,917.383,VALID,0,VALID,99.2793,VALID,0,VALID,19.4901,VALID,50,VALID,0.648082,
2003-09-27, 00:51:00,VALID,917.367,VALID,0,VALID,99.325,VALID,0.0169808,VALID,19.4961,VALID,50,VALID,0.517187,
2003-09-27, 00:52:00,VALID,917.354,VALID,0,VALID,99.2843,VALID,0,VALID,19.5062,VALID,54,VALID,0.576029,
2003-09-27, 00:53:01,VALID,917.342,VALID,0,VALID,99.2169,VALID,0,VALID,19.5159,VALID,71,VALID,0.627544,
2003-09-27, 00:54:00,VALID,917.317,VALID,0,VALID,99.1508,VALID,0,VALID,19.4993,VALID,71,VALID,0.76944,
2003-09-27, 00:55:01,VALID,917.29,VALID,0,VALID,99.0529,VALID,0.0169808,VALID,19.4961,VALID,80,VALID,0.874809,
2003-09-27, 00:56:00,VALID,917.266,VALID,0,VALID,98.969,VALID,0,VALID,19.4995,VALID,89,VALID,0.795072,
2003-09-27, 00:57:00,VALID,917.216,VALID,0,VALID,98.8965,VALID,0.0339617,VALID,19.4931,VALID,88,VALID,0.610102,
2003-09-27, 00:58:00,VALID,917.172,VALID,0,VALID,98.8494,VALID,0.0169808,VALID,19.5028,VALID,97,VALID,0.642578,
2003-09-27, 00:59:00,VALID,917.117,VALID,0,VALID,98.7897,VALID,0.0339617,VALID,19.5122,VALID,104,VALID,0.31157,
2003-09-27, 01:00:01,VALID,917.06,VALID,0,VALID,98.6371,VALID,0.0339617,VALID,19.5122,VALID,104,VALID,0.0424361,
2003-09-27, 01:01:00,VALID,917.002,VALID,0,VALID,98.5799,VALID,0,VALID,19.5124,VALID,104,VALID,0.0559593,
2003-09-27, 01:02:00,VALID,916.967,VALID,0,VALID,98.5252,VALID,0.0339617,VALID,19.5055,VALID,104,VALID,0.0504092,
2003-09-27, 01:03:01,VALID,916.927,VALID,0,VALID,98.5099,VALID,0,VALID,19.5023,VALID,104,VALID,0.0014881,
2003-09-27, 01:04:00,VALID,916.905,VALID,0,VALID,98.4998,VALID,0,VALID,19.5092,VALID,104,VALID,0.00218023,
2003-09-27, 01:05:00,VALID,916.873,VALID,0,VALID,98.4069,VALID,0,VALID,19.4923,VALID,104,VALID,0.0725446,
2003-09-27, 01:06:00,VALID,916.854,VALID,0,VALID,98.2696,VALID,0.0339617,VALID,19.4734,VALID,103,VALID,0.48544,
2003-09-27, 01:07:00,VALID,916.845,VALID,0,VALID,98.1488,VALID,0.0339617,VALID,19.4449,VALID,79,VALID,0.655342,
2003-09-27, 01:08:00,VALID,916.846,VALID,0,VALID,98.1374,VALID,0.0169808,VALID,19.4156,VALID,71,VALID,0.71875,
2003-09-27, 01:09:01,VALID,916.844,VALID,0,VALID,98.0013,VALID,0,VALID,19.3798,VALID,71,VALID,0.664418,
2003-09-27, 01:10:01,VALID,916.829,VALID,0,VALID,98.0649,VALID,0.0169808,VALID,19.3674,VALID,71,VALID,0.71875,
2003-09-27, 01:11:00,VALID,916.81,VALID,0,VALID,98.075,VALID,0.0169808,VALID,19.3247,VALID,90,VALID,0.601004,
2003-09-27, 01:12:00,VALID,916.782,VALID,0,VALID,98.2861,VALID,0.0339617,VALID,19.3026,VALID,113,VALID,1.06499,
2003-09-27, 01:13:00,VALID,916.779,VALID,0,VALID,98.5087,VALID,0.0169808,VALID,19.2998,VALID,121,VALID,1.0069,
2003-09-27, 01:14:00,VALID,916.764,VALID,0,VALID,98.7337,VALID,0.0169808,VALID,19.2795,VALID,124,VALID,1.03569,
2003-09-27, 01:15:01,VALID,916.748,VALID,0,VALID,98.8927,VALID,0,VALID,19.2901,VALID,127,VALID,0.894022,
2003-09-27, 01:16:00,VALID,916.723,VALID,0,VALID,98.9054,VALID,0,VALID,19.2767,VALID,117,VALID,0.958333,
2003-09-27, 01:17:01,VALID,916.736,VALID,0,VALID,99.0224,VALID,0.0169808,VALID,19.2737,VALID,101,VALID,1.02544,
2003-09-27, 01:18:00,VALID,916.733,VALID,0,VALID,99.03,VALID,0,VALID,19.2673,VALID,88,VALID,0.954241,
2003-09-27, 01:19:00,VALID,916.734,VALID,0,VALID,99.0618,VALID,0.0169808,VALID,19.2574,VALID,99,VALID,0.813072,
2003-09-27, 01:20:00,VALID,916.739,VALID,0,VALID,99.0593,VALID,0.0169808,VALID,19.2514,VALID,116,VALID,0.754514,
2003-09-27, 01:21:01,VALID,916.732,VALID,0,VALID,98.9804,VALID,0,VALID,19.2189,VALID,119,VALID,1.04706,
2003-09-27, 01:22:01,VALID,916.71,VALID,0,VALID,98.9881,VALID,0.0169808,VALID,19.193,VALID,110,VALID,1.17318,
2003-09-27, 01:23:00,VALID,916.681,VALID,0,VALID,98.9677,VALID,0.0169808,VALID,19.1838,VALID,117,VALID,1.09411,
2003-09-27, 01:24:00,VALID,916.664,VALID,0,VALID,99.016,VALID,0,VALID,19.161,VALID,126,VALID,1.14648,
2003-09-27, 01:25:01,VALID,916.636,VALID,0,VALID,99.0974,VALID,0,VALID,19.1617,VALID,133,VALID,1.15892,
2003-09-27, 01:26:00,VALID,916.606,VALID,0,VALID,99.1941,VALID,0,VALID,19.1545,VALID,130,VALID,1.15111,
2003-09-27, 01:27:01,VALID,916.603,VALID,0,VALID,99.2513,VALID,0.0169808,VALID,19.1548,VALID,142,VALID,1.30354,
2003-09-27, 01:28:01,VALID,916.583,VALID,0,VALID,99.3543,VALID,0,VALID,19.1515,VALID,143,VALID,1.20703,
2003-09-27, 01:29:01,VALID,916.596,VALID,0,VALID,99.442,VALID,0,VALID,19.1418,VALID,136,VALID,1.03809,
2003-09-27, 01:30:01,VALID,916.589,VALID,0,VALID,99.5081,VALID,0,VALID,19.1453,VALID,122,VALID,1.29918,
2003-09-27, 01:31:00,VALID,916.583,VALID,0,VALID,99.5514,VALID,0,VALID,19.1227,VALID,127,VALID,0.891493,
2003-09-27, 01:32:00,VALID,916.576,VALID,0,VALID,99.5704,VALID,0,VALID,19.1001,VALID,120,VALID,0.959604,
2003-09-27, 01:33:00,VALID,916.549,VALID,0,VALID,99.6785,VALID,0,VALID,19.0733,VALID,131,VALID,0.980015,
2003-09-27, 01:34:00,VALID,916.535,VALID,0,VALID,99.7243,VALID,0,VALID,19.0798,VALID,126,VALID,1.10801,
2003-09-27, 01:35:01,VALID,916.507,VALID,0,VALID,99.7472,VALID,0,VALID,19.074,VALID,133,VALID,1.21543,
2003-09-27, 01:36:01,VALID,916.478,VALID,0,VALID,99.7739,VALID,0,VALID,19.0743,VALID,134,VALID,1.10595,
2003-09-27, 01:37:00,VALID,916.461,VALID,0,VALID,99.8108,VALID,0.0339617,VALID,19.051,VALID,126,VALID,0.820131,
2003-09-27, 01:38:00,VALID,916.445,VALID,0,VALID,99.8184,VALID,0,VALID,19.0445,VALID,124,VALID,1.17001,
2003-09-27, 01:39:01,VALID,916.452,VALID,0,VALID,99.7968,VALID,-0.0169808,VALID,19.0519,VALID,91,VALID,0.687863,
2003-09-27, 01:40:00,VALID,916.448,VALID,0,VALID,99.7955,VALID,0,VALID,19.0388,VALID,63,VALID,0.475852,
2003-09-27, 01:41:00,VALID,916.473,VALID,0,VALID,99.7752,VALID,-0.0169808,VALID,19.0388,VALID,81,VALID,0.655692,
2003-09-27, 01:42:00,VALID,916.472,VALID,0,VALID,99.7599,VALID,0,VALID,19.0355,VALID,85,VALID,0.765816,
2003-09-27, 01:43:00,VALID,916.466,VALID,0,VALID,99.6773,VALID,-0.0169808,VALID,19.0355,VALID,101,VALID,0.785247,
2003-09-27, 01:44:00,VALID,916.462,VALID,0,VALID,99.5298,VALID,0,VALID,19.0288,VALID,107,VALID,0.615039,
2003-09-27, 01:45:00,VALID,916.441,VALID,0,VALID,99.3314,VALID,0,VALID,19.0579,VALID,86,VALID,0.702398,
2003-09-27, 01:46:00,VALID,916.418,VALID,0,VALID,99.1178,VALID,-0.0339617,VALID,19.084,VALID,117,VALID,0.458757,
2003-09-27, 01:47:00,VALID,916.382,VALID,0,VALID,98.9118,VALID,0,VALID,19.1227,VALID,117,VALID,0.322656,
2003-09-27, 01:48:00,VALID,916.359,VALID,0,VALID,98.7032,VALID,0,VALID,19.1518,VALID,94,VALID,0.31436,
2003-09-27, 01:49:00,VALID,916.337,VALID,0,VALID,98.4947,VALID,0,VALID,19.1774,VALID,51,VALID,0.0842226,
2003-09-27, 01:50:01,VALID,916.313,VALID,0,VALID,98.2887,VALID,0,VALID,19.1928,VALID,51,VALID,0,
2003-09-27, 01:51:00,VALID,916.301,VALID,0,VALID,98.145,VALID,0.0169808,VALID,19.2161,VALID,51,VALID,0,
2003-09-27, 01:52:01,VALID,916.283,VALID,0,VALID,98.0127,VALID,0,VALID,19.2392,VALID,51,VALID,0,
2003-09-27, 01:53:00,VALID,916.265,VALID,0,VALID,97.864,VALID,-0.0169808,VALID,19.2256,VALID,40,VALID,0.031622,
2003-09-27, 01:54:01,VALID,916.252,VALID,0,VALID,97.7076,VALID,0,VALID,19.2357,VALID,337,VALID,0.278587,
2003-09-27, 01:55:00,VALID,916.223,VALID,0,VALID,97.7902,VALID,0,VALID,19.236,VALID,256,VALID,0.692042,
2003-09-27, 01:56:00,VALID,916.204,VALID,0,VALID,98.0191,VALID,0,VALID,19.2452,VALID,254,VALID,0.684956,
2003-09-27, 01:57:00,VALID,916.188,VALID,0,VALID,98.1539,VALID,0,VALID,19.233,VALID,254,VALID,0.561133,
2003-09-27, 01:58:00,VALID,916.181,VALID,0,VALID,98.2989,VALID,-0.0169808,VALID,19.2265,VALID,254,VALID,0.493389,
2003-09-27, 01:59:01,VALID,916.16,VALID,0,VALID,98.4069,VALID,0,VALID,19.1935,VALID,249,VALID,0.481001,
2003-09-27, 02:00:00,VALID,916.147,VALID,0,VALID,98.5519,VALID,-0.0509425,VALID,19.1841,VALID,250,VALID,0.511009,
2003-09-27, 02:01:00,VALID,916.141,VALID,0,VALID,98.6702,VALID,0,VALID,19.1841,VALID,257,VALID,0.59702,
2003-09-27, 02:02:00,VALID,916.132,VALID,0,VALID,98.7541,VALID,0,VALID,19.1744,VALID,260,VALID,0.62128,
2003-09-27, 02:03:00,VALID,916.126,VALID,0,VALID,98.8406,VALID,0.0169808,VALID,19.1615,VALID,260,VALID,0.543713,
2003-09-27, 02:04:00,VALID,916.107,VALID,0,VALID,98.9219,VALID,0,VALID,19.1615,VALID,260,VALID,0.387541,
2003-09-27, 02:05:01,VALID,916.096,VALID,0,VALID,98.9804,VALID,-0.0169808,VALID,19.1485,VALID,260,VALID,0.207813,
2003-09-27, 02:06:01,VALID,916.081,VALID,0,VALID,99.0211,VALID,0,VALID,19.1552,VALID,258,VALID,0.415516,
2003-09-27, 02:07:01,VALID,916.063,VALID,0,VALID,99.0453,VALID,0,VALID,19.1555,VALID,249,VALID,0.23628,
2003-09-27, 02:08:00,VALID,916.052,VALID,0,VALID,99.0847,VALID,0,VALID,19.1612,VALID,245,VALID,0.266369,
2003-09-27, 02:09:00,VALID,916.046,VALID,0,VALID,99.0707,VALID,-0.0169808,VALID,19.1548,VALID,245,VALID,0.120236,
2003-09-27, 02:10:00,VALID,916.046,VALID,0,VALID,99.0707,VALID,0,VALID,19.1615,VALID,245,VALID,0.107851,
2003-09-27, 02:11:01,VALID,916.046,VALID,0,VALID,99.0949,VALID,-0.0169808,VALID,19.1548,VALID,245,VALID,0.138445,
2003-09-27, 02:12:00,VALID,916.062,VALID,0,VALID,99.0783,VALID,0.0169808,VALID,19.158,VALID,245,VALID,0.16997,
2003-09-27, 02:13:00,VALID,916.062,VALID,0,VALID,99.1063,VALID,0,VALID,19.1615,VALID,245,VALID,0.000363372,
2003-09-27, 02:14:00,VALID,916.075,VALID,0,VALID,99.119,VALID,0,VALID,19.1679,VALID,245,VALID,0.000558036,
2003-09-27, 02:15:00,VALID,916.081,VALID,0,VALID,99.1381,VALID,0.0169808,VALID,19.1749,VALID,245,VALID,0,
2003-09-27, 02:16:01,VALID,916.096,VALID,0,VALID,99.1279,VALID,0,VALID,19.1843,VALID,287,VALID,0.105196,
2003-09-27, 02:17:01,VALID,916.1,VALID,0,VALID,99.1343,VALID,0,VALID,19.1806,VALID,40,VALID,0.257254,
2003-09-27, 02:18:01,VALID,916.106,VALID,0,VALID,99.0796,VALID,-0.0169808,VALID,19.2037,VALID,42,VALID,0.418229,
2003-09-27, 02:19:01,VALID,916.133,VALID,0,VALID,99.0211,VALID,0,VALID,19.1838,VALID,64,VALID,0.790838,
2003-09-27, 02:20:01,VALID,916.148,VALID,0,VALID,98.9308,VALID,-0.0169808,VALID,19.1811,VALID,95,VALID,0.708984,
2003-09-27, 02:21:01,VALID,916.175,VALID,0,VALID,99.0109,VALID,-0.0169808,VALID,19.1714,VALID,109,VALID,0.781068,
2003-09-27, 02:22:00,VALID,916.18,VALID,0,VALID,99.0872,VALID,-0.0169808,VALID,19.1811,VALID,76,VALID,0.854048,
2003-09-27, 02:23:00,VALID,916.203,VALID,0,VALID,99.0453,VALID,-0.0169808,VALID,19.1744,VALID,66,VALID,1.4617,
2003-09-27, 02:24:01,VALID,916.216,VALID,0,VALID,98.8227,VALID,0,VALID,19.1458,VALID,74,VALID,1.59146,
2003-09-27, 02:25:01,VALID,916.226,VALID,0,VALID,98.7884,VALID,0,VALID,19.1125,VALID,85,VALID,1.625,
2003-09-27, 02:26:00,VALID,916.227,VALID,0,VALID,98.899,VALID,0.0169808,VALID,19.0934,VALID,101,VALID,1.02477,
2003-09-27, 02:27:00,VALID,916.23,VALID,0,VALID,99.0491,VALID,0.0169808,VALID,19.0867,VALID,138,VALID,1.02486,
2003-09-27, 02:28:01,VALID,916.218,VALID,0,VALID,99.1775,VALID,-0.0339617,VALID,19.087,VALID,122,VALID,0.940549,
2003-09-27, 02:29:00,VALID,916.203,VALID,0,VALID,99.2386,VALID,0.0169808,VALID,19.084,VALID,136,VALID,1.13672,
2003-09-27, 02:30:00,VALID,916.194,VALID,0,VALID,99.2882,VALID,0,VALID,19.0614,VALID,124,VALID,1.29106,
2003-09-27, 02:31:00,VALID,916.175,VALID,0,VALID,99.3568,VALID,0,VALID,19.0452,VALID,120,VALID,1.25114,
2003-09-27, 02:32:01,VALID,916.158,VALID,0,VALID,99.414,VALID,-0.0169808,VALID,19.0159,VALID,85,VALID,0.69668,
2003-09-27, 02:33:00,VALID,916.153,VALID,0,VALID,99.5603,VALID,0,VALID,19.0062,VALID,98,VALID,0.462713,
2003-09-27, 02:34:00,VALID,916.158,VALID,0,VALID,99.6213,VALID,0,VALID,19.0194,VALID,119,VALID,0.56715,
2003-09-27, 02:35:00,VALID,916.129,VALID,0,VALID,99.6506,VALID,0,VALID,19.0162,VALID,120,VALID,0.498471,
2003-09-27, 02:36:01,VALID,916.129,VALID,0,VALID,99.7014,VALID,0.0169808,VALID,19.0196,VALID,119,VALID,0.168605,
2003-09-27, 02:37:01,VALID,916.123,VALID,0,VALID,99.7701,VALID,-0.0169808,VALID,19.0226,VALID,119,VALID,0.0485491,
2003-09-27, 02:38:01,VALID,916.126,VALID,0,VALID,99.8121,VALID,0.0169808,VALID,19.0385,VALID,119,VALID,0,
2003-09-27, 02:39:01,VALID,916.112,VALID,0,VALID,99.8464,VALID,0,VALID,19.0514,VALID,119,VALID,0.00887784,
2003-09-27, 02:40:01,VALID,916.095,VALID,0,VALID,99.868,VALID,0.0169808,VALID,19.0646,VALID,119,VALID,0,
2003-09-27, 02:41:01,VALID,916.099,VALID,0,VALID,99.8947,VALID,0,VALID,19.0805,VALID,119,VALID,0,
2003-09-27, 02:42:01,VALID,916.103,VALID,0,VALID,99.9112,VALID,0,VALID,19.0999,VALID,119,VALID,0,
2003-09-27, 02:43:00,VALID,916.096,VALID,0,VALID,99.943,VALID,0,VALID,19.1195,VALID,119,VALID,0,
2003-09-27, 02:44:01,VALID,916.09,VALID,0,VALID,99.9647,VALID,0,VALID,19.1485,VALID,119,VALID,0.0693824,
2003-09-27, 02:45:01,VALID,916.1,VALID,0,VALID,99.9519,VALID,0,VALID,19.1481,VALID,77,VALID,0.308408,
2003-09-27, 02:46:01,VALID,916.108,VALID,0,VALID,99.9468,VALID,0,VALID,19.158,VALID,35,VALID,0.565044,
2003-09-27, 02:47:01,VALID,916.103,VALID,0,VALID,99.9316,VALID,0,VALID,19.1644,VALID,33,VALID,0.503906,
2003-09-27, 02:48:01,VALID,916.124,VALID,0,VALID,99.9036,VALID,0,VALID,19.1515,VALID,18,VALID,0.418968,
2003-09-27, 02:49:00,VALID,916.146,VALID,0,VALID,99.8973,VALID,0.0169808,VALID,19.1647,VALID,18,VALID,0.42254,
2003-09-27, 02:50:01,VALID,916.15,VALID,0,VALID,99.8922,VALID,-0.0169808,VALID,19.1845,VALID,18,VALID,0.509115,
2003-09-27, 02:51:01,VALID,916.17,VALID,0,VALID,99.8451,VALID,-0.0169808,VALID,19.2042,VALID,18,VALID,0.348133,
2003-09-27, 02:52:01,VALID,916.188,VALID,0,VALID,99.8248,VALID,0,VALID,19.2004,VALID,18,VALID,0.332667,
2003-09-27, 02:53:00,VALID,916.189,VALID,0,VALID,99.7434,VALID,0,VALID,19.2099,VALID,40,VALID,0.432478,
2003-09-27, 02:54:01,VALID,916.198,VALID,0,VALID,99.6684,VALID,0,VALID,19.2071,VALID,42,VALID,0.5,
2003-09-27, 02:55:01,VALID,916.178,VALID,0,VALID,99.6404,VALID,-0.0169808,VALID,19.2193,VALID,25,VALID,0.57279,
2003-09-27, 02:56:01,VALID,916.192,VALID,0,VALID,99.5425,VALID,0,VALID,19.236,VALID,9,VALID,0.377717,
2003-09-27, 02:57:01,VALID,916.179,VALID,0,VALID,99.4573,VALID,0,VALID,19.236,VALID,9,VALID,0.251674,
2003-09-27, 02:58:01,VALID,916.175,VALID,0,VALID,99.2513,VALID,0,VALID,19.2295,VALID,58,VALID,0.470274,
2003-09-27, 02:59:01,VALID,916.161,VALID,0,VALID,99.1114,VALID,0.0169808,VALID,19.2069,VALID,126,VALID,0.901456,
2003-09-27, 03:00:01,VALID,916.171,VALID,0,VALID,99.1165,VALID,0,VALID,19.1908,VALID,127,VALID,1.18848,
2003-09-27, 03:01:01,VALID,916.173,VALID,0,VALID,99.147,VALID,0,VALID,19.1841,VALID,126,VALID,1.16104,
2003-09-27, 03:02:01,VALID,916.174,VALID,0,VALID,99.1,VALID,0,VALID,19.191,VALID,128,VALID,1.18862,
2003-09-27, 03:03:01,VALID,916.177,VALID,0,VALID,99.0644,VALID,0,VALID,19.1905,VALID,128,VALID,0.952035,
2003-09-27, 03:04:01,VALID,916.164,VALID,0,VALID,99.0326,VALID,0,VALID,19.1975,VALID,127,VALID,1.15767,
2003-09-27, 03:05:01,VALID,916.165,VALID,0,VALID,99.0249,VALID,-0.0169808,VALID,19.1808,VALID,113,VALID,0.735978,
2003-09-27, 03:06:01,VALID,916.172,VALID,0,VALID,99.1063,VALID,0.0339617,VALID,19.1709,VALID,77,VALID,0.522675,
2003-09-27, 03:07:01,VALID,916.196,VALID,0,VALID,99.1012,VALID,-0.0169808,VALID,19.1744,VALID,102,VALID,0.611281,
2003-09-27, 03:08:01,VALID,916.196,VALID,0,VALID,99.1318,VALID,-0.0339617,VALID,19.1644,VALID,91,VALID,0.33327,
2003-09-27, 03:09:01,VALID,916.206,VALID,0,VALID,99.175,VALID,0,VALID,19.1716,VALID,84,VALID,0.424352,
2003-09-27, 03:10:01,VALID,916.222,VALID,0,VALID,99.2373,VALID,0,VALID,19.197,VALID,81,VALID,0.294457,
2003-09-27, 03:11:01,VALID,916.222,VALID,0,VALID,99.1775,VALID,-0.0169808,VALID,19.1873,VALID,81,VALID,0.153764,
2003-09-27, 03:12:01,VALID,916.221,VALID,0,VALID,99.1597,VALID,0,VALID,19.1875,VALID,81,VALID,0.00277778,
2003-09-27, 03:13:01,VALID,916.208,VALID,0,VALID,99.1585,VALID,0,VALID,19.194,VALID,81,VALID,0.0459449,
2003-09-27, 03:14:01,VALID,916.208,VALID,0,VALID,99.1318,VALID,0,VALID,19.1995,VALID,81,VALID,0,
2003-09-27, 03:15:01,VALID,916.21,VALID,0,VALID,99.1038,VALID,0.0339617,VALID,19.1935,VALID,81,VALID,0,
2003-09-27, 03:16:01,VALID,916.211,VALID,0,VALID,99.0872,VALID,0,VALID,19.2067,VALID,81,VALID,0,
2003-09-27, 03:17:01,VALID,916.213,VALID,0,VALID,99.1152,VALID,0.0169808,VALID,19.197,VALID,81,VALID,0,
2003-09-27, 03:18:01,VALID,916.219,VALID,0,VALID,99.1559,VALID,0,VALID,19.2,VALID,81,VALID,0.0772569,
2003-09-27, 03:19:01,VALID,916.242,VALID,0,VALID,99.1674,VALID,0,VALID,19.2131,VALID,81,VALID,0.0706845,
2003-09-27, 03:20:00,VALID,916.273,VALID,0,VALID,99.161,VALID,0,VALID,19.2191,VALID,82,VALID,0.287109,
2003-09-27, 03:21:00,VALID,916.293,VALID,0,VALID,99.1305,VALID,0.0169808,VALID,19.2161,VALID,121,VALID,0.397166,
2003-09-27, 03:22:00,VALID,916.332,VALID,0,VALID,99.1101,VALID,0,VALID,19.226,VALID,143,VALID,0.462891,
2003-09-27, 03:23:00,VALID,916.356,VALID,0,VALID,99.0885,VALID,0,VALID,19.226,VALID,147,VALID,0.66654,
2003-09-27, 03:24:00,VALID,916.37,VALID,0,VALID,99.0682,VALID,0.0169808,VALID,19.226,VALID,142,VALID,0.809832,
2003-09-27, 03:25:00,VALID,916.371,VALID,0,VALID,99.0707,VALID,0.0169808,VALID,19.2163,VALID,144,VALID,0.816497,
2003-09-27, 03:26:00,VALID,916.389,VALID,0,VALID,99.0872,VALID,0,VALID,19.1997,VALID,134,VALID,0.739211,
2003-09-27, 03:27:00,VALID,916.388,VALID,0,VALID,99.0923,VALID,0.0339617,VALID,19.2101,VALID,132,VALID,0.969444,
2003-09-27, 03:28:00,VALID,916.4,VALID,0,VALID,99.1012,VALID,0.0509425,VALID,19.2094,VALID,120,VALID,0.766927,
2003-09-27, 03:29:00,VALID,916.378,VALID,0,VALID,99.0694,VALID,0.0169808,VALID,19.2196,VALID,127,VALID,1.23018,
2003-09-27, 03:30:00,VALID,916.376,VALID,0,VALID,99.0338,VALID,0.0339617,VALID,19.2124,VALID,121,VALID,1.24833,
2003-09-27, 03:31:00,VALID,916.369,VALID,0,VALID,98.9995,VALID,0,VALID,19.2263,VALID,121,VALID,1.28525,
2003-09-27, 03:32:00,VALID,916.366,VALID,0,VALID,98.9779,VALID,-0.0169808,VALID,19.229,VALID,123,VALID,1.1285,
2003-09-27, 03:33:00,VALID,916.33,VALID,0,VALID,98.9397,VALID,0.0169808,VALID,19.2454,VALID,120,VALID,1.32924,
2003-09-27, 03:34:00,VALID,916.33,VALID,0,VALID,98.894,VALID,0,VALID,19.2549,VALID,119,VALID,1.27907,
2003-09-27, 03:35:00,VALID,916.312,VALID,0,VALID,98.8355,VALID,0.0339617,VALID,19.2583,VALID,120,VALID,1.13002,
2003-09-27, 03:36:00,VALID,916.297,VALID,0,VALID,98.7808,VALID,0.0339617,VALID,19.2583,VALID,116,VALID,1.10273,
2003-09-27, 03:37:00,VALID,916.29,VALID,0,VALID,98.7096,VALID,0.0169808,VALID,19.2511,VALID,121,VALID,1.23297,
2003-09-27, 03:38:00,VALID,916.266,VALID,0,VALID,98.7248,VALID,0.0339617,VALID,19.2549,VALID,122,VALID,1.18398,
2003-09-27, 03:39:00,VALID,916.263,VALID,0,VALID,98.6905,VALID,0,VALID,19.2549,VALID,111,VALID,1.0013,
2003-09-27, 03:40:00,VALID,916.255,VALID,0,VALID,98.6841,VALID,-0.0169808,VALID,19.265,VALID,110,VALID,0.621951,